Location: *
(47.6569°N, 7.4256°E)
Time: 14:54:14
(UTC+00:00)

NOSS 3-1 (C) - Pass Details

Date: 14 December 2019
Orbit: 763 x 1445 km, 63.4° (Epoch: 19 January)

Event Time Altitude Azimuth Distance (km) Brightness Sun altitude
Rises 16:38:03 0° 316° (NW) 3,795 6.9 -9.5°
Reaches altitude 10° 16:40:45 10° 325° (NW) 2,941 6.2 -10.0°
Maximum altitude 16:47:20 39° 33° (NNE) 1,754 4.5 -11.0°
Drops below altitude 10° 16:54:55 10° 100° (E) 3,383 5.8 -12.2°
Enters shadow 16:55:31 - 102° (ESE) 3,570 5.9 -12.3°
